User: anonymous   Login
Location: ??
(35.5052°N, 139.7262°E)
Time: 20:04:25
(UTC+00:00)
Language:

FENGYUN 1C DEB - Orbit

View from above orbital plane
View from above orbital plane
View from above satellite
View from above satellite

Ground track
Ground track

The orbit data is extracted from the following two-line orbital elements,

1 36741U 99025EBP 22008.35208505  .00001346  00000-0  70520-3 0  9997
2 36741  98.4344  42.2460 0116640 131.0230 230.1098 14.12359982371177
Epoch (UTC): 08 January 2022 08:27:00
Eccentricity: 0.0116640
inclination: 98.4344°
perigee height: 767 km
apogee height: 935 km
right ascension of ascending node: 42.2460°
argument of perigee: 131.0230°
revolutions per day: 14.12359982
mean anomaly at epoch: 230.1098°
orbit number at epoch: 37117

The dashed part of the orbit path shows where the satellite is in the earth's shadow,  

DLR